When you browse on this site, cookies collect data to enhance your experience and personalize the content and advertising you see.
Visit our Privacy Policy to learn more. By continuing to use the site, you agree to this use of cookies and data.
  • In Czech Republic
  • List of Countries
  • For 7 days
  • Water Temperature
  • Satellite Maps
  • Weather Map
  • Weather Widgets
  • user-avatar
    Login

    Hourly Weather Cerkovische

    Today, 22 May, Wednesday

    Time Temperature Precipitation Wind Pressure Humidity
    00:00 +14°C° 0 mm 3 mps 742 mmHg 95%
    01:00 +13°C° 0 mm 3 mps 741 mmHg 95%
    02:00 +13°C° 0 mm 3 mps 741 mmHg 96%
    03:00 +13°C° 0 mm 3 mps 741 mmHg 96%
    04:00 +13°C° 0 mm 3 mps 741 mmHg 96%
    05:00 +13°C° 0 mm 3 mps 741 mmHg 96%
    06:00 +14°C° 0 mm 3 mps 741 mmHg 92%
    07:00 +16°C° 0 mm 2 mps 741 mmHg 88%
    08:00 +18°C° 0 mm 2 mps 740 mmHg 84%
    09:00 +19°C° 0 mm 2 mps 740 mmHg 77%
    10:00 +20°C° 0 mm 2 mps 740 mmHg 70%
    11:00 +23°C° 0 mm 2 mps 740 mmHg 63%
    12:00 +23°C° 0 mm 2 mps 740 mmHg 59%
    13:00 +24°C° 0 mm 2 mps 740 mmHg 55%
    14:00 +25°C° 0 mm 2 mps 739 mmHg 50%
    15:00 +25°C° 0 mm 1 mps 739 mmHg 51%
    16:00 +25°C° 0 mm 1 mps 739 mmHg 52%
    17:00 +25°C° 0 mm 1 mps 739 mmHg 53%
    18:00 +23°C° 0 mm 1 mps 739 mmHg 57%
    19:00 +21°C° 0 mm 1 mps 739 mmHg 62%
    20:00 +17°C° 0 mm 0 mps 738 mmHg 66%
    21:00 +18°C° 0 mm 1 mps 738 mmHg 68%
    22:00 +18°C° 0 mm 1 mps 738 mmHg 70%
    23:00 +16°C° 0 mm 1 mps 738 mmHg 71%

    Tomorrow, 23 May, Thursday

    Time Temperature Precipitation Wind Pressure Humidity
    00:00 +16°C° 0 mm 1 mps 738 mmHg 74%
    01:00 +15°C° 0 mm 1 mps 738 mmHg 77%
    02:00 +15°C° 0 mm 2 mps 738 mmHg 80%
    03:00 +15°C° 0 mm 2 mps 738 mmHg 82%
    04:00 +15°C° 0 mm 2 mps 738 mmHg 85%
    05:00 +15°C° 0 mm 2 mps 738 mmHg 87%
    06:00 +17°C° 0 mm 2 mps 738 mmHg 82%
    07:00 +18°C° 0 mm 2 mps 738 mmHg 78%
    08:00 +20°C° 0 mm 2 mps 738 mmHg 73%
    09:00 +22°C° 0.1 mm 3 mps 738 mmHg 67%
    10:00 +24°C° 0.1 mm 3 mps 738 mmHg 60%
    11:00 +25°C° 0.1 mm 3 mps 738 mmHg 54%
    12:00 +25°C° 0 mm 3 mps 738 mmHg 53%
    13:00 +26°C° 0 mm 3 mps 738 mmHg 52%
    14:00 +26°C° 0 mm 3 mps 738 mmHg 51%
    15:00 +26°C° 0 mm 3 mps 738 mmHg 52%
    16:00 +26°C° 0 mm 3 mps 738 mmHg 54%
    17:00 +26°C° 0 mm 2 mps 737 mmHg 56%
    18:00 +24°C° 0.1 mm 2 mps 737 mmHg 63%
    19:00 +21°C° 0.1 mm 2 mps 737 mmHg 71%
    20:00 +19°C° 0.1 mm 2 mps 737 mmHg 78%
    21:00 +18°C° 0 mm 2 mps 738 mmHg 81%
    22:00 +18°C° 0 mm 2 mps 738 mmHg 83%
    23:00 +17°C° 0 mm 2 mps 738 mmHg 86%

    Day after tomorrow, 24 May, Friday

    Time Temperature Precipitation Wind Pressure Humidity
    00:00 +16°C° 0 mm 1 mps 738 mmHg 88%
    01:00 +16°C° 0 mm 1 mps 738 mmHg 89%
    02:00 +16°C° 0 mm 1 mps 738 mmHg 91%
    03:00 +16°C° 0 mm 1 mps 738 mmHg 91%
    04:00 +16°C° 0 mm 1 mps 738 mmHg 90%
    05:00 +16°C° 0 mm 1 mps 738 mmHg 90%
    06:00 +19°C° 0 mm 1 mps 738 mmHg 85%
    07:00 +18°C° 0 mm 0 mps 738 mmHg 80%
    08:00 +20°C° 0 mm 0 mps 739 mmHg 74%
    09:00 +21°C° 1.5 mm 0 mps 739 mmHg 70%
    10:00 +24°C° 1.5 mm 1 mps 739 mmHg 65%
    11:00 +25°C° 1.5 mm 1 mps 739 mmHg 60%
    12:00 +25°C° 2.2 mm 1 mps 739 mmHg 59%
    13:00 +25°C° 2.2 mm 1 mps 738 mmHg 59%
    14:00 +25°C° 2.2 mm 1 mps 738 mmHg 58%
    15:00 +25°C° 0.4 mm 1 mps 738 mmHg 59%
    16:00 +25°C° 0.4 mm 1 mps 738 mmHg 60%
    17:00 +25°C° 0.4 mm 1 mps 738 mmHg 61%
    18:00 +24°C° 0.9 mm 1 mps 738 mmHg 68%
    19:00 +21°C° 0.9 mm 2 mps 737 mmHg 75%
    20:00 +19°C° 0.9 mm 2 mps 737 mmHg 82%
    21:00 +18°C° 0.5 mm 2 mps 737 mmHg 85%
    22:00 +17°C° 0.5 mm 2 mps 737 mmHg 89%
    23:00 +17°C° 0.5 mm 2 mps 737 mmHg 92%

    25 May, Saturday

    Time Temperature Precipitation Wind Pressure Humidity
    00:00 +16°C° 0 mm 2 mps 737 mmHg 92%
    01:00 +16°C° 0 mm 2 mps 737 mmHg 93%
    02:00 +16°C° 0 mm 2 mps 736 mmHg 94%
    03:00 +16°C° 0.3 mm 2 mps 736 mmHg 94%
    04:00 +16°C° 0.3 mm 2 mps 736 mmHg 95%
    05:00 +16°C° 0.3 mm 2 mps 736 mmHg 96%
    06:00 +16°C° 0.1 mm 2 mps 736 mmHg 94%
    07:00 +17°C° 0.1 mm 2 mps 736 mmHg 91%
    08:00 +18°C° 0.1 mm 2 mps 736 mmHg 89%
    09:00 +18°C° 0.4 mm 3 mps 736 mmHg 89%
    10:00 +17°C° 0.4 mm 4 mps 736 mmHg 89%
    11:00 +16°C° 0.4 mm 5 mps 737 mmHg 89%
    12:00 +17°C° 0 mm 5 mps 736 mmHg 83%
    13:00 +19°C° 0 mm 5 mps 736 mmHg 78%
    14:00 +19°C° 0 mm 5 mps 736 mmHg 73%
    15:00 +20°C° 0 mm 4 mps 736 mmHg 69%
    16:00 +20°C° 0 mm 4 mps 736 mmHg 65%
    17:00 +20°C° 0 mm 4 mps 736 mmHg 62%
    18:00 +19°C° 0 mm 3 mps 736 mmHg 65%
    19:00 +17°C° 0 mm 2 mps 736 mmHg 68%
    20:00 +15°C° 0 mm 2 mps 736 mmHg 71%
    21:00 +15°C° 0 mm 2 mps 736 mmHg 76%
    22:00 +14°C° 0 mm 2 mps 736 mmHg 81%
    23:00 +13°C° 0 mm 2 mps 737 mmHg 86%

    26 May, Sunday

    Time Temperature Precipitation Wind Pressure Humidity
    00:00 +11°C° 0 mm 3 mps 737 mmHg 88%
    01:00 +11°C° 0 mm 3 mps 737 mmHg 91%
    02:00 +10°C° 0 mm 3 mps 737 mmHg 94%
    03:00 +10°C° 0 mm 3 mps 737 mmHg 93%
    04:00 +9°C° 0 mm 3 mps 737 mmHg 92%
    05:00 +9°C° 0 mm 3 mps 737 mmHg 92%
    06:00 +10°C° 0 mm 3 mps 737 mmHg 85%
    07:00 +11°C° 0 mm 4 mps 737 mmHg 79%
    08:00 +12°C° 0 mm 4 mps 737 mmHg 73%
    09:00 +13°C° 0 mm 4 mps 737 mmHg 71%
    10:00 +13°C° 0 mm 5 mps 737 mmHg 69%
    11:00 +14°C° 0 mm 5 mps 737 mmHg 67%
    12:00 +14°C° 0.1 mm 5 mps 737 mmHg 69%
    13:00 +13°C° 0.1 mm 5 mps 736 mmHg 71%
    14:00 +13°C° 0.1 mm 5 mps 736 mmHg 73%
    15:00 +13°C° 0.1 mm 5 mps 736 mmHg 75%
    16:00 +13°C° 0.1 mm 5 mps 736 mmHg 76%
    17:00 +13°C° 0.1 mm 4 mps 736 mmHg 78%
    18:00 +12°C° 0.2 mm 5 mps 735 mmHg 81%
    19:00 +10°C° 0.2 mm 5 mps 735 mmHg 84%
    20:00 +10°C° 0.2 mm 5 mps 735 mmHg 87%
    21:00 +9°C° 0.2 mm 5 mps 735 mmHg 89%
    22:00 +9°C° 0.2 mm 5 mps 735 mmHg 91%
    23:00 +8°C° 0.2 mm 5 mps 735 mmHg 93%

    27 May, Monday

    Time Temperature Precipitation Wind Pressure Humidity
    00:00 +8°C° 0.1 mm 5 mps 735 mmHg 93%
    01:00 +8°C° 0.1 mm 5 mps 735 mmHg 93%
    02:00 +7°C° 0.1 mm 6 mps 735 mmHg 93%
    03:00 +7°C° 0.1 mm 6 mps 735 mmHg 91%
    04:00 +5°C° 0.1 mm 6 mps 735 mmHg 90%
    05:00 +6°C° 0.1 mm 5 mps 735 mmHg 89%
    06:00 +5°C° 0 mm 6 mps 735 mmHg 86%
    07:00 +6°C° 0 mm 7 mps 736 mmHg 83%
    08:00 +8°C° 0 mm 7 mps 736 mmHg 80%
    09:00 +9°C° 0 mm 7 mps 736 mmHg 77%
    10:00 +9°C° 0 mm 7 mps 737 mmHg 74%
    11:00 +10°C° 0 mm 7 mps 737 mmHg 71%
    12:00 +11°C° 0.1 mm 7 mps 738 mmHg 71%
    13:00 +11°C° 0.1 mm 7 mps 738 mmHg 70%
    14:00 +11°C° 0.1 mm 6 mps 739 mmHg 69%
    15:00 +11°C° 0 mm 6 mps 739 mmHg 70%
    16:00 +12°C° 0 mm 5 mps 739 mmHg 71%
    17:00 +12°C° 0 mm 5 mps 739 mmHg 73%
    18:00 +12°C° 0 mm 4 mps 739 mmHg 74%
    19:00 +11°C° 0 mm 3 mps 740 mmHg 76%
    20:00 +10°C° 0 mm 3 mps 740 mmHg 78%
    21:00 +10°C° 0 mm 3 mps 740 mmHg 80%
    22:00 +9°C° 0 mm 3 mps 740 mmHg 82%
    23:00 +9°C° 0 mm 3 mps 740 mmHg 84%
    Show more